Probability
0 0 0 0 0 0 0 0 0 0 0 0 0 0 0 0 3 0 10 10 16 13 13 29 42 45 48 48 42 35 39 29 32 35 32 29 19 19 19 19 16 13 13 13 13 13 10 10 10
0 0 0 0 0 0 0 0 0 0 0 0 0 0 0 3 3 3 10 10 16 16 13 19 35 45 42 45 35 35 32 29 29 29 29 26 23 19 16 16 13 13 13 13 13 10 6 6 6
0 0 0 0 0 0 0 0 0 0 0 0 0 0 0 3 3 6 10 10 16 16 10 16 39 45 42 45 39 35 26 29 26 26 26 29 19 19 13 16 13 13 10 10 10 3 6 6 6
0 0 0 0 0 0 0 0 0 0 0 0 0 0 0 3 3 6 10 10 13 13 16 16 32 35 35 39 39 32 26 23 23 23 23 23 19 16 13 13 13 13 10 6 3 6 6 6 6
0 0 0 0 0 0 0 0 0 0 0 0 0 0 0 0 3 6 10 13 16 13 19 16 26 29 32 35 32 32 26 19 19 19 19 23 19 19 16 16 13 10 10 10 6 6 6 6 3
0 0 0 0 0 0 0 0 0 0 0 0 0 0 0 0 6 6 6 10 13 10 16 19 26 23 23 29 29 29 26 23 19 19 19 19 16 13 19 16 13 10 10 10 6 6 3 3 3
0 0 0 0 0 0 0 0 0 0 0 0 0 0 0 0 6 10 10 10 13 13 10 10 19 19 23 26 29 26 23 23 23 19 23 23 13 19 19 16 10 10 10 6 6 3 3 3 3
0 0 0 0 0 0 0 0 0 0 0 0 0 0 0 6 6 10 10 10 13 10 6 6 13 16 10 10 10 13 13 13 13 13 6 6 6 6 6 10 10 10 6 6 3 3 3 3 3
0 0 0 0 0 0 0 0 0 0 0 0 0 0 3 6 6 10 10 10 10 10 3 6 6 13 10 6 6 10 10 3 0 3 3 3 3 6 6 3 10 10 6 6 3 3 3 3 3
0 0 0 0 0 0 0 0 0 0 0 0 0 0 3 6 6 10 10 6 6 10 3 3 3 6 3 3 3 6 6 0 0 0 3 3 3 0 0 0 0 0 3 3 3 3 3 3 0
0 0 0 0 0 0 0 0 0 0 0 0 0 0 3 3 6 3 3 3 6 10 6 3 3 3 0 0 3 3 3 0 0 0 0 0 0 0 0 0 0 0 0 0 0 0 0 0 0
0 0 0 0 0 0 0 0 0 0 0 0 0 0 3 3 0 0 0 0 3 3 6 6 3 6 0 0 0 3 3 3 3 3 0 0 0 0 0 0 0 0 0 3 3 0 0 0 0
0 0 0 0 0 0 0 0 0 0 0 0 0 3 0 0 0 0 0 0 0 0 3 6 6 3 3 3 0 0 3 3 3 0 0 0 0 0 0 0 0 0 0 0 0 0 0 0 0
0 0 0 0 0 0 0 0 0 0 0 0 0 3 6 3 0 0 0 0 0 0 0 3 3 3 3 3 0 0 0 0 0 0 0 0 0 0 0 0 0 0 0 0 0 0 0 0 0
0 0 0 0 0 0 0 0 0 0 0 0 0 3 3 0 3 0 0 0 0 0 0 3 3 3 3 3 0 0 0 0 0 0 0 0 0 0 0 0 0 0 0 0 0 0 0 0 0
0 0 0 0 0 0 0 0 0 0 0 0 0 0 3 3 0 0 0 0 0 0 0 3 3 3 3 3 0 0 0 0 0 0 0 0 0 0 0 0 0 0 0 0 0 0 0 0 0
0 0 0 0 0 0 0 0 0 0 0 0 0 0 0 3 3 0 0 0 0 0 0 0 0 3 3 3 0 0 0 0 0 0 0 0 0 0 0 0 0 0 0 0 0 0 0 0 0
0 0 0 0 0 0 0 0 0 0 0 0 0 0 0 3 3 3 0 0 0 0 0 0 0 3 3 3 3 0 0 0 0 0 0 0 0 0 0 0 0 0 0 0 0 0 0 0 0
0 0 0 0 0 0 0 0 0 0 0 0 0 0 0 0 3 3 3 0 0 0 0 0 0 0 3 3 0 0 0 0 0 0 0 0 0 0 0 0 0 0 0 0 0 0 0 0 0
0 0 0 0 0 0 0 0 0 0 0 0 0 0 0 0 0 3 3 0 0 0 0 0 0 0 0 0 0 0 0 0 0 0 0 0 0 0 0 0 0 0 0 0 0 0 0 0 0
0 0 0 0 0 0 0 0 0 0 0 0 0 0 0 0 0 0 3 3 0 0 0 0 0 0 0 0 0 0 0 0 0 0 0 0 0 0 0 0 0 0 0 0 0 0 0 0 0
0 0 0 0 0 0 0 0 0 0 0 0 0 0 0 0 0 0 3 3 0 0 0 0 0 0 0 0 0 0 0 0 0 0 0 0 0 0 0 0 0 0 0 0 0 0 0 0 0
0 0 0 0 0 0 0 0 0 0 0 0 0 0 0 0 0 0 0 3 0 0 0 0 0 0 0 0 0 0 0 0 0 0 0 0 0 0 0 0 0 0 0 0 0 0 0 0 0
0 0 0 0 0 0 0 0 0 0 0 0 0 0 0 0 0 0 0 3 0 0 0 0 0 0 0 0 0 0 0 0 0 0 0 0 0 0 0 0 0 0 0 0 0 0 0 0 0
0 0 0 0 0 0 0 0 0 0 0 0 0 0 0 0 0 0 0 0 3 0 3 0 0 0 0 0 0 0 0 0 0 0 0 0 0 0 0 0 0 0 0 0 0 0 0 0 0
0 0 0 0 0 0 0 0 0 0 0 0 0 0 0 0 0 0 0 0 3 3 3 3 0 0 0 0 0 0 0 0 0 0 0 0 0 0 0 0 0 0 0 0 0 0 0 0 0
0 0 0 0 0 0 0 0 0 0 0 0 0 0 0 0 0 0 0 0 0 3 3 3 0 0 0 0 0 0 0 0 0 0 0 0 0 0 0 0 0 0 0 0 0 0 0 0 0
0 0 0 0 0 0 0 0 0 0 0 0 0 0 0 0 0 0 0 0 0 0 0 3 3 0 0 0 0 0 0 0 0 0 0 0 0 0 0 0 0 0 0 0 0 0 0 0 0
0 0 0 0 0 0 0 0 0 0 0 0 0 0 0 0 0 0 0 0 0 0 0 0 3 3 0 0 0 0 0 0 0 0 0 0 0 0 0 0 0 0 0 0 0 0 0 0 0
0 0 0 0 0 0 0 0 0 0 0 0 0 0 0 0 0 0 0 0 0 0 0 0 0 3 0 0 0 0 0 0 0 0 0 0 0 0 0 0 0 0 0 0 0 0 0 0 0
Height
5816 5818 5819 5821 5823 5824 5826 5828 5829 5830 5831 5833 5833 5834 5835 5836 5838 5840 5840 5839 5840 5841 5841 5842 5842 5843 5843 5844 5844 5845 5845 5846 5846 5846 5847 5847 5847 5848 5848 5848 5849 5849 5849 5849 5849 5850 5850 5850 5850
5812 5814 5816 5817 5818 5820 5823 5824 5825 5827 5828 5829 5830 5831 5833 5833 5834 5835 5835 5836 5837 5838 5838 5839 5839 5840 5841 5841 5842 5842 5843 5843 5843 5844 5844 5845 5845 5845 5846 5846 5846 5846 5847 5847 5847 5847 5848 5848 5848
5807 5809 5811 5812 5814 5816 5819 5821 5822 5823 5824 5826 5827 5828 5829 5830 5831 5831 5832 5833 5834 5835 5835 5836 5836 5837 5837 5838 5838 5839 5839 5840 5840 5841 5841 5842 5842 5842 5843 5843 5843 5843 5844 5844 5844 5844 5845 5845 5845
5802 5804 5806 5808 5810 5813 5815 5816 5817 5819 5820 5821 5823 5824 5825 5826 5827 5828 5828 5829 5830 5831 5831 5832 5832 5833 5833 5834 5834 5835 5836 5836 5837 5837 5838 5838 5839 5839 5839 5840 5840 5840 5840 5841 5841 5841 5841 5842 5842
5797 5799 5801 5803 5805 5808 5810 5811 5813 5814 5816 5817 5818 5820 5820 5822 5822 5824 5824 5825 5826 5827 5827 5827 5828 5829 5829 5830 5830 5831 5832 5832 5833 5833 5834 5834 5835 5835 5836 5836 5836 5836 5837 5837 5837 5838 5838 5838 5838
5792 5794 5796 5798 5800 5803 5805 5806 5808 5809 5810 5812 5813 5815 5815 5817 5818 5819 5820 5820 5821 5822 5823 5823 5824 5824 5825 5825 5826 5826 5827 5827 5828 5829 5829 5830 5830 5831 5831 5831 5832 5832 5832 5832 5833 5833 5833 5834 5834
5787 5788 5790 5793 5795 5797 5800 5801 5803 5804 5805 5807 5808 5810 5810 5812 5814 5814 5815 5816 5817 5817 5818 5818 5819 5819 5819 5820 5820 5821 5822 5823 5823 5824 5824 5825 5825 5826 5826 5827 5827 5826 5827 5827 5828 5828 5828 5829 5829
5780 5783 5785 5787 5789 5792 5794 5795 5797 5798 5800 5802 5802 5804 5805 5807 5808 5809 5810 5811 5811 5812 5812 5813 5813 5813 5813 5814 5814 5815 5816 5817 5818 5818 5819 5820 5820 5821 5821 5821 5821 5821 5822 5822 5822 5822 5823 5823 5824
5775 5778 5779 5782 5784 5786 5787 5789 5791 5792 5794 5796 5796 5798 5800 5801 5802 5803 5804 5805 5805 5806 5807 5807 5807 5807 5807 5807 5808 5809 5810 5811 5812 5813 5813 5814 5814 5814 5815 5815 5815 5815 5816 5816 5816 5816 5816 5817 5817
5769 5771 5775 5776 5777 5779 5781 5783 5784 5787 5788 5790 5791 5792 5794 5795 5796 5797 5798 5799 5800 5800 5800 5800 5800 5800 5800 5801 5802 5803 5804 5805 5806 5806 5807 5808 5808 5808 5808 5809 5809 5809 5809 5809 5809 5809 5810 5810 5810
5763 5766 5768 5769 5771 5772 5774 5776 5778 5780 5782 5783 5784 5786 5787 5788 5790 5791 5792 5793 5793 5794 5794 5794 5794 5793 5793 5794 5795 5796 5798 5799 5799 5800 5801 5801 5801 5801 5801 5802 5802 5802 5802 5802 5802 5802 5802 5802 5803
5757 5759 5760 5762 5764 5766 5767 5770 5772 5773 5775 5776 5778 5779 5781 5782 5783 5784 5785 5786 5787 5787 5788 5787 5787 5787 5787 5788 5789 5790 5791 5792 5792 5793 5793 5793 5794 5794 5794 5794 5794 5794 5794 5794 5794 5794 5794 5794 5795
5750 5752 5753 5755 5757 5758 5760 5762 5764 5766 5768 5769 5771 5772 5774 5775 5776 5777 5778 5779 5780 5780 5781 5781 5781 5781 5781 5781 5782 5783 5783 5784 5784 5784 5785 5785 5785 5785 5785 5785 5785 5785 5785 5785 5785 5785 5785 5785 5786
5742 5744 5746 5747 5749 5751 5753 5755 5757 5759 5761 5762 5763 5765 5766 5767 5769 5770 5771 5772 5773 5773 5774 5774 5774 5774 5774 5775 5775 5776 5775 5775 5776 5776 5776 5776 5776 5776 5776 5776 5776 5775 5775 5775 5775 5776 5776 5776 5776
5734 5736 5738 5740 5742 5744 5745 5748 5750 5752 5753 5754 5756 5757 5758 5760 5761 5762 5763 5764 5765 5766 5767 5767 5767 5767 5767 5767 5767 5767 5767 5767 5767 5767 5767 5766 5766 5767 5767 5767 5766 5766 5766 5766 5766 5766 5766 5766 5767
5727 5728 5730 5733 5734 5736 5738 5740 5742 5743 5744 5746 5747 5749 5750 5752 5753 5754 5756 5756 5757 5758 5759 5759 5759 5759 5759 5759 5759 5759 5759 5758 5758 5758 5757 5756 5756 5756 5756 5756 5756 5756 5756 5756 5756 5756 5756 5756 5757
5719 5721 5723 5725 5726 5728 5729 5731 5734 5735 5736 5738 5739 5741 5742 5744 5745 5746 5747 5748 5749 5750 5750 5751 5751 5751 5751 5751 5750 5750 5750 5749 5749 5748 5747 5746 5745 5746 5746 5746 5746 5746 5746 5745 5745 5746 5746 5746 5746
5713 5714 5715 5716 5719 5719 5720 5723 5725 5726 5728 5729 5731 5732 5734 5735 5737 5738 5739 5740 5740 5741 5742 5742 5742 5742 5742 5742 5741 5741 5740 5740 5739 5738 5737 5736 5735 5735 5735 5735 5736 5736 5736 5735 5735 5735 5735 5736 5736
5705 5706 5707 5709 5711 5712 5713 5714 5717 5718 5720 5721 5723 5724 5725 5727 5728 5729 5730 5731 5732 5732 5733 5733 5733 5733 5733 5733 5732 5732 5731 5730 5729 5728 5727 5725 5724 5724 5725 5725 5725 5725 5725 5724 5724 5725 5725 5725 5726
5697 5699 5700 5701 5703 5704 5705 5706 5709 5710 5712 5713 5714 5715 5717 5718 5719 5720 5721 5722 5722 5723 5723 5723 5724 5723 5723 5723 5722 5722 5721 5720 5719 5718 5716 5715 5714 5714 5714 5714 5715 5714 5714 5714 5714 5714 5714 5715 5715
5690 5692 5693 5694 5695 5696 5697 5699 5701 5703 5703 5704 5705 5707 5708 5709 5710 5711 5711 5712 5713 5713 5713 5713 5713 5713 5713 5712 5712 5711 5711 5710 5709 5708 5706 5705 5704 5704 5704 5704 5704 5704 5703 5703 5703 5704 5704 5705 5705
5683 5685 5686 5686 5687 5688 5690 5690 5694 5694 5695 5696 5697 5698 5699 5700 5701 5701 5702 5703 5703 5703 5703 5703 5703 5702 5702 5702 5701 5701 5700 5700 5699 5698 5697 5695 5694 5694 5694 5693 5694 5694 5693 5693 5693 5693 5694 5694 5694
5676 5677 5678 5678 5679 5680 5682 5682 5686 5686 5687 5689 5689 5690 5691 5691 5692 5692 5692 5693 5693 5693 5693 5692 5692 5692 5691 5691 5691 5690 5690 5690 5689 5688 5687 5685 5685 5684 5684 5684 5684 5684 5683 5683 5683 5683 5683 5684 5684
5668 5670 5670 5670 5671 5672 5675 5675 5677 5678 5680 5681 5681 5681 5681 5682 5682 5682 5682 5682 5683 5683 5682 5682 5682 5681 5681 5681 5681 5680 5680 5680 5679 5678 5677 5676 5675 5675 5674 5674 5674 5674 5674 5674 5674 5673 5673 5673 5674
5661 5663 5663 5663 5663 5665 5668 5666 5669 5671 5672 5672 5672 5672 5672 5672 5673 5673 5673 5673 5673 5673 5672 5672 5672 5671 5671 5671 5670 5670 5670 5669 5668 5668 5667 5666 5666 5665 5665 5665 5665 5664 5664 5664 5663 5663 5663 5663 5663
5654 5655 5657 5657 5657 5659 5659 5659 5662 5663 5663 5663 5663 5663 5663 5663 5663 5663 5663 5663 5663 5663 5662 5662 5662 5661 5661 5661 5660 5660 5660 5659 5658 5658 5657 5656 5656 5655 5655 5655 5655 5654 5654 5653 5653 5653 5653 5653 5653
5646 5647 5649 5649 5649 5650 5651 5652 5654 5654 5655 5655 5655 5655 5654 5654 5654 5653 5653 5653 5653 5653 5653 5652 5652 5651 5651 5651 5650 5650 5649 5649 5648 5648 5647 5646 5646 5645 5645 5645 5644 5644 5644 5643 5643 5643 5643 5642 5642
5640 5641 5641 5641 5641 5642 5643 5644 5646 5646 5646 5646 5646 5645 5645 5645 5644 5644 5643 5643 5643 5643 5643 5643 5642 5641 5641 5640 5640 5639 5639 5639 5638 5638 5637 5637 5636 5635 5635 5635 5634 5634 5634 5633 5633 5632 5632 5631 5631
5633 5634 5633 5634 5634 5635 5635 5639 5638 5638 5637 5637 5637 5636 5636 5635 5635 5634 5634 5633 5633 5633 5633 5633 5632 5631 5631 5630 5630 5629 5629 5628 5628 5627 5627 5626 5626 5625 5625 5625 5624 5624 5623 5623 5622 5622 5621 5620 5620
5625 5626 5626 5627 5627 5627 5627 5632 5630 5629 5628 5627 5627 5627 5626 5626 5625 5625 5624 5623 5623 5623 5623 5622 5622 5621 5621 5620 5619 5619 5618 5617 5617 5616 5616 5615 5615 5615 5614 5614 5614 5613 5613 5612 5612 5611 5611 5610 5609
Wind_Speed
23 22 22 22 22 22 20 19 19 18 18 17 17 18 18 17 17 17 16 16 16 15 15 14 14 14 14 14 14 14 13 13 13 13 13 13 13 13 13 13 12 12 12 12 12 11 11 11 11
24 24 24 24 24 23 21 20 20 19 20 20 20 20 19 19 19 19 18 17 17 17 17 16 16 16 16 16 17 16 16 15 15 15 15 15 15 15 14 15 15 14 14 14 13 13 13 13 13
25 25 25 25 25 24 22 22 22 21 21 22 22 21 21 20 20 20 19 19 18 18 19 18 18 18 18 18 18 18 18 17 17 17 17 17 17 17 17 16 16 17 16 16 16 16 16 16 16
26 27 27 27 26 25 25 24 24 24 23 24 23 23 22 22 22 21 21 20 20 19 20 20 20 20 20 20 20 20 20 20 19 19 19 18 18 18 18 18 18 18 18 18 18 18 18 18 18
27 28 28 28 27 26 26 26 25 25 25 25 25 24 24 24 23 22 22 22 21 21 21 21 21 21 21 21 21 21 21 21 21 21 21 21 20 20 20 20 20 20 20 20 20 20 20 20 20
29 29 29 28 28 27 28 27 27 27 27 27 26 26 26 25 24 23 23 23 23 23 22 22 22 23 23 23 23 23 23 23 23 23 23 23 23 23 22 22 23 23 22 22 22 22 22 22 22
29 30 30 29 29 29 28 28 29 29 28 28 28 27 28 27 25 25 25 25 25 24 24 24 24 24 25 25 25 25 25 25 25 25 25 25 25 25 25 25 25 25 25 25 24 24 25 25 24
29 31 31 31 31 30 29 30 30 30 29 29 30 29 29 28 27 27 27 27 26 26 26 25 26 26 27 26 26 26 27 27 27 26 26 26 27 27 27 27 27 27 27 27 27 27 27 27 27
29 31 31 30 31 30 30 31 31 31 31 31 31 30 30 30 29 29 29 29 28 28 28 27 27 27 28 28 28 28 28 28 28 28 28 28 29 29 29 30 30 31 30 29 29 29 29 30 30
30 31 30 31 31 32 31 31 32 32 32 31 31 31 30 31 30 30 30 30 30 29 29 29 28 29 29 29 29 29 29 30 30 30 30 30 31 31 32 31 32 32 32 32 32 32 31 31 31
31 31 31 32 32 33 33 33 32 32 32 32 32 32 31 31 31 31 31 32 31 31 31 31 31 31 30 30 30 31 31 31 32 32 32 32 32 33 33 33 33 34 34 33 33 33 32 32 32
32 32 32 32 32 33 34 33 33 33 33 33 33 33 33 32 32 32 32 32 32 32 32 32 33 32 32 32 32 32 33 33 33 34 34 34 34 34 35 35 35 35 35 34 34 34 35 35 35
33 33 33 33 33 34 34 34 34 33 34 34 34 34 34 34 34 33 33 33 33 32 32 32 33 33 33 33 33 33 34 34 35 36 36 36 36 36 36 36 36 37 37 37 37 36 36 37 36
33 33 33 33 34 34 34 34 34 33 34 34 35 35 35 35 35 35 35 34 34 34 33 33 33 33 33 34 34 34 35 35 35 37 37 38 38 38 38 38 37 38 38 38 38 37 37 38 37
33 33 33 33 34 34 35 35 35 35 35 35 35 36 36 35 36 36 36 35 35 35 35 35 35 35 35 35 36 36 37 37 37 38 38 39 39 39 39 39 39 39 39 39 39 39 38 39 38
33 34 34 33 33 34 36 36 35 35 36 36 36 36 36 36 36 37 37 37 36 36 36 36 36 36 36 37 37 37 38 38 38 38 40 40 40 40 40 40 40 40 40 41 41 40 40 39 39
34 34 34 34 34 34 36 36 35 35 36 36 36 35 36 37 37 37 37 37 37 37 37 37 37 37 37 37 38 38 39 39 39 40 40 41 41 41 41 41 41 40 41 42 43 43 42 41 40
33 34 34 34 33 33 34 34 34 34 35 35 36 36 36 37 37 38 38 38 38 38 38 38 38 38 38 39 39 39 39 39 39 40 41 42 42 42 41 41 41 41 41 42 42 43 44 43 42
32 32 33 33 32 33 33 33 33 33 34 35 36 36 36 37 37 38 38 38 38 39 39 38 39 39 40 40 40 39 39 40 40 41 42 42 41 42 42 42 42 42 43 43 43 43 43 43 44
32 32 32 32 32 33 33 33 33 34 34 35 36 37 37 37 37 37 38 38 38 38 39 39 39 40 40 40 41 41 41 41 41 42 42 42 42 42 42 43 43 43 42 42 43 43 43 44 44
32 32 32 33 33 33 34 34 33 34 35 35 36 36 37 37 38 38 39 39 39 39 39 40 40 41 41 42 42 41 41 42 41 42 42 42 42 42 43 43 43 43 42 41 42 43 43 43 43
32 32 32 33 33 33 34 35 34 34 34 35 36 36 36 36 37 38 38 38 40 40 40 40 41 42 42 43 43 42 42 42 42 42 42 42 42 42 43 43 43 42 42 42 42 42 42 42 42
32 32 32 32 33 34 34 36 34 34 34 34 35 36 36 36 37 37 38 38 39 39 40 40 40 41 42 42 42 42 42 42 42 42 41 41 41 42 42 42 41 42 41 41 42 42 42 42 42
30 31 31 32 33 34 32 35 35 34 33 33 34 35 36 37 37 38 38 38 38 39 40 41 41 41 41 41 41 41 41 42 42 42 42 41 41 42 41 41 41 40 40 41 42 42 43 43 43
29 30 31 32 33 33 32 34 34 32 32 32 33 34 35 36 37 37 38 38 38 39 39 40 40 40 40 40 40 40 41 41 40 41 41 41 41 41 41 40 41 41 41 42 43 43 43 43 43
29 30 30 32 33 33 34 34 33 32 32 32 33 34 35 36 37 37 37 38 38 38 38 39 39 39 40 40 40 40 40 40 39 40 40 40 41 41 42 41 42 42 42 42 42 43 43 43 43
28 29 30 31 32 33 33 34 34 33 33 33 34 34 35 36 36 37 37 38 38 38 38 37 38 38 39 39 40 40 40 40 40 40 41 41 41 41 42 42 41 41 41 42 42 42 42 42 43
28 28 29 31 32 34 35 34 34 35 35 35 35 35 35 36 37 36 37 38 38 38 38 38 38 38 38 39 39 40 41 41 42 42 42 42 40 40 41 41 41 42 41 41 41 42 42 43 44
28 28 29 30 32 34 36 35 33 34 35 35 35 35 35 35 36 36 37 37 38 38 38 39 39 39 39 39 39 40 40 41 42 42 41 41 41 41 41 41 41 41 40 41 41 41 42 43 43
28 28 29 30 31 33 34 33 32 34 35 35 34 34 34 34 34 34 35 35 36 37 37 37 38 38 39 39 39 40 40 41 41 41 40 40 41 41 41 41 40 40 40 41 41 41 42 42 42
Wind_Direction
243 244 244 245 246 246 247 246 247 248 249 250 251 252 254 255 258 260 261 260 260 259 260 261 264 264 263 262 263 263 264 266 266 263 262 262 262 264 264 264 264 266 269 268 268 268 268 268 268
243 243 244 245 246 247 247 248 250 251 252 250 252 254 255 256 258 259 261 261 260 259 260 260 261 263 264 264 263 264 265 267 267 265 264 264 264 265 266 267 266 266 268 268 269 268 266 267 269
244 243 245 245 246 248 248 250 252 252 253 253 253 255 257 258 258 260 261 261 262 261 260 261 261 262 264 264 264 264 265 265 266 267 265 264 265 265 265 265 266 265 265 267 267 268 268 267 268
244 244 245 246 246 247 249 250 253 253 254 255 256 256 257 258 258 259 260 261 261 261 261 262 262 263 263 263 263 263 264 264 265 266 266 265 265 265 265 266 267 267 266 266 265 266 268 268 268
245 246 246 246 247 248 249 251 253 254 256 256 256 258 257 258 258 259 260 261 261 261 262 262 262 263 262 262 262 263 264 264 265 265 266 266 267 266 267 267 268 268 269 268 266 267 267 268 269
246 246 248 248 247 247 249 250 252 254 256 257 257 257 258 257 258 259 260 261 262 263 264 264 263 264 264 263 263 263 264 266 266 266 266 267 267 266 266 268 268 269 268 269 268 268 268 268 269
248 247 248 249 248 248 250 252 253 254 256 257 258 257 257 256 258 259 260 261 262 263 264 264 265 264 264 264 264 264 265 266 266 266 266 266 265 265 266 267 268 267 267 267 268 268 268 268 269
250 249 249 250 250 250 251 252 253 254 256 257 258 257 257 257 257 259 260 261 261 262 263 264 265 265 264 263 263 263 264 265 266 267 266 266 266 266 267 267 267 267 267 267 268 268 269 268 268
251 251 251 251 252 252 252 253 253 254 255 257 258 258 258 259 258 259 260 262 262 263 263 264 264 265 265 264 263 263 264 265 266 266 266 267 267 267 268 268 268 267 267 268 268 268 268 268 267
251 253 253 253 253 254 254 254 254 254 255 256 257 257 258 260 260 261 261 262 262 262 263 265 266 266 266 265 264 264 264 265 266 267 267 268 268 268 268 269 268 267 268 269 270 269 268 268 268
252 253 253 253 253 254 255 255 255 256 256 256 256 257 258 260 262 262 262 262 263 263 263 264 266 266 266 265 265 265 266 266 266 267 268 269 269 268 268 269 269 268 269 269 269 268 268 267 267
254 253 253 253 254 255 255 256 256 257 257 257 257 258 260 261 262 263 263 263 263 263 263 264 265 266 266 266 266 266 266 266 266 267 268 268 269 268 267 267 268 268 268 267 267 267 267 269 268
254 254 254 254 254 255 255 255 256 256 257 258 258 259 260 261 261 262 263 263 264 264 265 265 265 265 266 266 266 266 266 267 267 267 267 268 269 268 266 266 267 267 268 267 267 267 267 268 269
254 254 254 253 254 254 255 255 256 257 257 258 258 258 259 260 260 261 262 263 264 264 265 265 265 265 266 266 267 268 268 267 268 269 269 268 268 268 268 267 267 267 268 268 268 268 268 268 268
255 254 254 254 254 255 255 256 257 258 258 259 259 258 259 260 261 261 262 263 264 264 265 265 265 265 266 267 268 269 270 269 270 271 270 269 267 268 269 267 267 268 268 268 268 268 268 267 268
255 256 255 255 255 256 256 256 258 259 259 258 259 259 260 260 262 262 262 263 263 264 265 265 265 265 265 267 268 270 270 271 272 272 272 270 269 269 269 268 267 268 268 269 269 269 268 267 267
255 257 258 256 256 257 257 257 257 258 258 259 259 260 260 260 261 262 262 262 263 264 265 265 265 265 266 267 268 270 270 271 272 271 271 271 270 268 269 269 268 269 270 270 269 268 268 268 269
258 258 258 258 257 257 257 256 256 257 258 259 260 261 261 261 261 262 263 263 263 264 264 265 266 266 266 267 268 270 270 272 272 272 272 273 271 268 268 268 268 269 270 269 269 269 269 269 270
259 259 259 259 258 258 257 256 256 257 259 261 261 262 262 262 262 263 263 264 264 264 265 266 266 266 266 267 269 270 271 272 272 272 273 273 272 269 268 268 268 269 270 270 270 269 269 270 271
258 258 259 260 260 260 259 257 257 259 261 262 263 263 263 263 262 263 263 263 264 264 265 265 266 266 266 267 269 270 271 272 273 273 273 273 273 271 268 268 268 270 271 271 270 270 270 270 271
257 258 260 262 262 262 262 260 259 260 262 262 262 263 264 265 265 264 264 264 264 265 266 266 266 266 266 267 269 270 271 272 273 274 273 273 272 271 268 267 268 269 270 270 271 271 270 271 272
258 259 261 263 264 264 263 264 262 263 263 264 264 264 265 266 266 266 265 265 265 265 266 266 266 267 267 268 269 270 271 272 273 274 272 272 272 272 271 268 268 270 271 272 272 271 270 271 272
259 260 261 263 264 265 265 266 265 266 266 266 267 267 266 266 267 267 266 266 266 266 266 266 267 268 268 269 270 271 272 273 274 273 272 272 272 271 270 269 269 271 271 273 273 272 271 271 272
260 260 262 263 264 266 267 269 268 268 269 269 269 269 268 267 267 267 268 267 267 267 267 267 268 269 269 269 270 271 272 273 274 272 271 271 272 272 271 270 270 272 271 272 271 271 271 271 272
260 261 262 263 264 266 269 270 272 271 271 271 270 270 270 269 269 269 269 268 268 267 268 268 269 270 270 270 270 271 272 273 274 272 271 271 270 271 271 270 271 271 270 271 271 271 272 272 273
260 262 263 265 266 268 269 270 272 273 272 272 272 272 272 272 272 271 270 269 269 269 269 269 270 271 271 270 270 270 272 272 274 273 272 272 271 271 271 271 272 272 271 271 271 271 273 274 275
261 262 264 265 266 269 271 272 272 273 273 274 274 274 274 274 275 273 270 269 269 270 271 271 272 272 272 272 271 270 271 272 273 274 274 273 272 271 272 271 271 272 271 271 271 272 273 275 276
261 264 264 265 267 269 270 273 273 274 275 276 276 275 275 275 275 273 271 270 270 270 271 272 272 272 273 273 273 273 273 273 274 274 275 274 272 272 272 272 271 271 271 271 273 274 275 275 276
260 263 264 266 267 268 271 273 275 276 277 277 277 277 276 276 274 273 271 270 271 271 272 272 272 272 273 273 273 274 275 274 275 275 275 274 272 272 273 274 273 272 272 274 274 275 276 276 276
261 263 266 266 268 269 271 274 275 276 277 277 278 279 278 277 276 274 273 272 271 271 271 271 272 272 273 273 274 274 275 275 275 275 275 274 273 272 274 275 274 274 273 274 275 275 276 276 277